N87JW KSDL-KS25

Flight info

Callsign N87JW
Flight time N/A
Altitude 45000
Route YOTES6 JARPA RSK J10 HBU FROGS KURSE MMASH
Aircraft C750/M-SBDE3FGHRWXY/S

Departure

Time 2026-05-08 14:44
Airport Scottsdale Airport (KSDL)

Arrival

Time N/A
Airport Watford City Municipal Airport (KS25)
Time Latitude Longitude Altitude Speed Heading
2026-05-08 14:14 33.61932 -111.91721 1500 ft 0 kts 314°
2026-05-08 14:33 33.61933 -111.91723 1500 ft 2 kts 314°
2026-05-08 14:33 33.61952 -111.91741 1498 ft 5 kts 340°
2026-05-08 14:34 33.61975 -111.91727 1497 ft 2 kts 60°
2026-05-08 14:34 33.61975 -111.91711 1498 ft 2 kts 104°
2026-05-08 14:34 33.61972 -111.91703 1498 ft 1 kts 113°
2026-05-08 14:34 33.61962 -111.91688 1499 ft 3 kts 136°
2026-05-08 14:35 33.61942 -111.91663 1501 ft 5 kts 134°
2026-05-08 14:35 33.61918 -111.91634 1503 ft 4 kts 136°
2026-05-08 14:35 33.61917 -111.91598 1504 ft 7 kts 59°
2026-05-08 14:35 33.61967 -111.91540 1504 ft 11 kts 44°
2026-05-08 14:36 33.62020 -111.91480 1503 ft 10 kts 44°
2026-05-08 14:36 33.62073 -111.91417 1502 ft 11 kts 44°
2026-05-08 14:36 33.62131 -111.91351 1501 ft 12 kts 43°
2026-05-08 14:36 33.62185 -111.91289 1502 ft 10 kts 43°
2026-05-08 14:37 33.62229 -111.91240 1502 ft 8 kts 43°
2026-05-08 14:37 33.62273 -111.91190 1502 ft 9 kts 45°
2026-05-08 14:37 33.62316 -111.91138 1502 ft 8 kts 45°
2026-05-08 14:37 33.62359 -111.91086 1504 ft 9 kts 45°
2026-05-08 14:38 33.62409 -111.91028 1506 ft 10 kts 44°
2026-05-08 14:38 33.62457 -111.90975 1506 ft 9 kts 43°
2026-05-08 14:38 33.62507 -111.90917 1506 ft 12 kts 44°
2026-05-08 14:38 33.62574 -111.90839 1507 ft 14 kts 44°
2026-05-08 14:39 33.62641 -111.90762 1507 ft 13 kts 44°
2026-05-08 14:39 33.62706 -111.90686 1504 ft 14 kts 44°
2026-05-08 14:39 33.62775 -111.90607 1503 ft 13 kts 43°
2026-05-08 14:39 33.62838 -111.90536 1503 ft 12 kts 45°
2026-05-08 14:40 33.62895 -111.90468 1502 ft 12 kts 44°
2026-05-08 14:40 33.62953 -111.90401 1501 ft 11 kts 42°
2026-05-08 14:40 33.63006 -111.90341 1502 ft 11 kts 43°
2026-05-08 14:40 33.63047 -111.90293 1503 ft 14 kts 44°
2026-05-08 14:41 33.63123 -111.90206 1503 ft 11 kts 43°
2026-05-08 14:41 33.63141 -111.90176 1504 ft 4 kts 83°
2026-05-08 14:41 33.63136 -111.90163 1504 ft 0 kts 123°
2026-05-08 14:42 33.63134 -111.90158 1504 ft 3 kts 124°
2026-05-08 14:42 33.63109 -111.90130 1504 ft 5 kts 146°
2026-05-08 14:42 33.63083 -111.90136 1504 ft 4 kts 216°
2026-05-08 14:42 33.63069 -111.90152 1504 ft 0 kts 225°
2026-05-08 14:43 33.63067 -111.90155 1504 ft 4 kts 225°
2026-05-08 14:43 33.62848 -111.90408 1502 ft 98 kts 224°
2026-05-08 14:43 33.62170 -111.91184 1652 ft 150 kts 223°
2026-05-08 14:44 33.61471 -111.92134 2328 ft 155 kts 244°
2026-05-08 14:44 33.61456 -111.93462 2800 ft 170 kts 293°
2026-05-08 14:44 33.62297 -111.94416 3446 ft 171 kts 335°
2026-05-08 14:44 33.63436 -111.94817 4171 ft 169 kts 345°
2026-05-08 14:45 33.64613 -111.95136 4647 ft 185 kts 346°
2026-05-08 14:45 33.65941 -111.95490 5018 ft 206 kts 346°
2026-05-08 14:45 33.67390 -111.95871 5498 ft 220 kts 346°
2026-05-08 14:45 33.68931 -111.96283 5965 ft 234 kts 346°
2026-05-08 14:46 33.70583 -111.96402 6410 ft 248 kts
2026-05-08 14:46 33.72210 -111.95501 6787 ft 274 kts 35°
2026-05-08 14:46 33.73541 -111.93808 7572 ft 279 kts 48°
2026-05-08 14:46 33.74767 -111.91990 8584 ft 281 kts 49°
2026-05-08 14:47 33.76118 -111.90278 9436 ft 283 kts 42°
2026-05-08 14:47 33.77564 -111.88644 10229 ft 290 kts 42°
2026-05-08 14:47 33.79036 -111.86832 10406 ft 317 kts 45°
2026-05-08 14:47 33.80565 -111.84828 10909 ft 326 kts 46°
2026-05-08 14:48 33.82119 -111.82848 11745 ft 326 kts 45°
2026-05-08 14:48 33.83710 -111.80879 12476 ft 330 kts 44°
2026-05-08 14:48 33.85308 -111.78882 13224 ft 333 kts 45°
2026-05-08 14:48 33.86913 -111.76846 13897 ft 337 kts 45°
2026-05-08 14:49 33.88518 -111.74817 14544 ft 340 kts 45°
2026-05-08 14:49 33.90160 -111.72751 15183 ft 343 kts 45°
2026-05-08 14:49 33.91817 -111.70661 15833 ft 346 kts 45°
2026-05-08 14:49 33.93484 -111.68555 16501 ft 349 kts 45°
2026-05-08 14:50 33.95168 -111.66425 17183 ft 353 kts 45°
2026-05-08 14:50 33.96875 -111.64269 17877 ft 356 kts 44°
2026-05-08 14:50 33.98594 -111.62095 18542 ft 360 kts 44°
2026-05-08 14:50 34.00374 -111.59962 19137 ft 362 kts 38°
2026-05-08 14:51 34.02484 -111.58300 19771 ft 363 kts 30°
2026-05-08 14:51 34.04633 -111.56683 20437 ft 365 kts 31°
2026-05-08 14:51 34.06777 -111.55014 21168 ft 368 kts 31°
2026-05-08 14:51 34.08944 -111.53332 21851 ft 372 kts 31°
2026-05-08 14:52 34.11141 -111.51654 22538 ft 375 kts 30°
2026-05-08 14:52 34.15585 -111.48245 23903 ft 382 kts 31°
2026-05-08 14:52 34.17831 -111.46512 24493 ft 385 kts 31°
2026-05-08 14:53 34.20072 -111.44787 25073 ft 388 kts 31°
2026-05-08 14:53 34.22360 -111.43027 25653 ft 391 kts 31°
2026-05-08 14:53 34.24658 -111.41256 26218 ft 393 kts 31°
2026-05-08 14:53 34.26977 -111.39465 26786 ft 396 kts 31°
2026-05-08 14:54 34.29313 -111.37661 27342 ft 399 kts 31°
2026-05-08 14:54 34.31669 -111.35842 27890 ft 403 kts 31°
2026-05-08 14:54 34.34042 -111.34008 28417 ft 406 kts 31°
2026-05-08 14:54 34.36434 -111.32157 28928 ft 410 kts 31°
2026-05-08 14:55 34.38845 -111.30291 29443 ft 413 kts 31°
2026-05-08 14:55 34.41247 -111.28431 29944 ft 416 kts 31°
2026-05-08 14:55 34.43724 -111.26511 30410 ft 419 kts 31°
2026-05-08 14:55 34.46187 -111.24600 30759 ft 421 kts 31°
2026-05-08 14:56 34.48656 -111.22683 31354 ft 420 kts 31°
2026-05-08 14:56 34.51071 -111.20806 32046 ft 416 kts 31°
2026-05-08 14:56 34.53500 -111.18918 32702 ft 414 kts 31°
2026-05-08 14:56 34.55920 -111.17031 33356 ft 412 kts 31°
2026-05-08 14:57 34.58323 -111.15159 34028 ft 409 kts 31°
2026-05-08 14:57 34.60717 -111.13300 34609 ft 407 kts 31°
2026-05-08 14:57 34.63001 -111.11261 35139 ft 409 kts 38°
2026-05-08 14:57 34.65037 -111.08838 35645 ft 410 kts 42°
2026-05-08 14:58 34.67048 -111.06393 36193 ft 408 kts 41°
2026-05-08 14:58 34.69069 -111.03972 36741 ft 408 kts 41°
2026-05-08 14:58 34.71080 -111.01552 37282 ft 407 kts 41°
2026-05-08 14:58 34.73086 -110.99114 37811 ft 407 kts 41°
2026-05-08 14:59 34.75061 -110.96715 38347 ft 406 kts 41°
2026-05-08 14:59 34.79066 -110.91870 39225 ft 407 kts 41°
2026-05-08 14:59 34.81081 -110.89424 39574 ft 409 kts 41°
2026-05-08 15:00 34.83100 -110.86968 39935 ft 411 kts 41°
2026-05-08 15:00 34.85124 -110.84507 40279 ft 412 kts 41°
2026-05-08 15:00 34.87155 -110.82039 40624 ft 414 kts 41°
2026-05-08 15:00 34.89195 -110.79556 41001 ft 415 kts 41°
2026-05-08 15:01 34.91238 -110.77067 41366 ft 415 kts 41°
2026-05-08 15:01 34.93283 -110.74573 41712 ft 417 kts 41°
2026-05-08 15:01 34.95342 -110.72062 42042 ft 418 kts 41°
2026-05-08 15:01 34.97399 -110.69551 42348 ft 419 kts 41°
2026-05-08 15:02 34.99437 -110.67060 42649 ft 421 kts 41°
2026-05-08 15:02 35.01533 -110.64497 42955 ft 422 kts 41°
2026-05-08 15:02 35.03584 -110.61988 43090 ft 423 kts 41°
2026-05-08 15:02 35.05664 -110.59441 43395 ft 424 kts 42°
2026-05-08 15:03 35.07749 -110.56885 43687 ft 425 kts 42°
2026-05-08 15:03 35.09840 -110.54320 43971 ft 426 kts 42°
2026-05-08 15:03 35.11934 -110.51751 44254 ft 428 kts 42°
2026-05-08 15:03 35.14036 -110.49169 44534 ft 429 kts 42°
2026-05-08 15:04 35.16141 -110.46581 44801 ft 430 kts 42°
2026-05-08 15:04 35.18236 -110.44002 45011 ft 427 kts 42°
2026-05-08 15:04 35.22490 -110.38766 45013 ft 440 kts 42°
2026-05-08 15:05 35.26834 -110.33406 45025 ft 453 kts 42°
2026-05-08 15:05 35.31306 -110.27879 45018 ft 458 kts 43°
2026-05-08 15:06 35.35760 -110.22365 45017 ft 457 kts 43°
2026-05-08 15:06 35.40234 -110.16819 45022 ft 457 kts 43°
2026-05-08 15:07 35.44705 -110.11265 45008 ft 459 kts 43°
2026-05-08 15:07 35.49193 -110.05682 45011 ft 459 kts 43°
2026-05-08 15:08 35.52918 -110.01040 45011 ft 459 kts 43°
2026-05-08 15:08 35.58138 -109.94526 45001 ft 458 kts 43°
2026-05-08 15:09 35.62600 -109.88947 45005 ft 458 kts 43°
2026-05-08 15:09 35.67064 -109.83356 45001 ft 458 kts 43°
2026-05-08 15:10 35.71446 -109.77652 44980 ft 462 kts 49°
2026-05-08 15:10 35.75374 -109.71339 45001 ft 464 kts 50°